Regional Weather Roundup
Issued by NWS

Home | Current Version | Previous Version | Text Only | Print | Product List | Glossary On
Versions: 1 2 3 4 5 6 7 8 9 10 11 12 13 14 15 16 17 18 19 20 21 22 23 24 25 26 27 28 29 30 31 32 33 34 35 36 37 38 39 40 41 42 43 44 45 46 47 48 49 50
000
ASUS43 KDTX 270410
RWRMI
MICHIGAN HOURLY REGIONAL WEATHER ROUNDUP
NATIONAL WEATHER SERVICE DETROIT/PONTIAC MI
1200 AM EDT SAT AUG 27 2016

NOTE: "FAIR" INDICATES FEW OR NO CLOUDS BELOW 12,000 FEET WITH NO
SIGNIFICANT WEATHER AND/OR OBSTRUCTION TO VISIBILITY.

MIZ047>049-052>055-059>063-066>070-074>076-081>083-270500-
SOUTHEAST LOWER MICHIGAN

CITY           SKY/WX    TMP DP  RH WIND       PRES   REMARKS
ADRIAN         MOCLDY    68  66  93 NE3       30.16F
ALMA           CLEAR     62  61  98 MISG      30.17R
ANN ARBOR      PTCLDY    63  63 100 CALM      30.15F
BAD AXE        CLEAR     65  65  98 CALM      30.16F
CARO           PTCLDY    62  61  98 CALM      30.15F
DETROIT CITY   PTCLDY    73  65  75 CALM      30.15F
DETROIT        MOCLDY    73  67  81 CALM      30.16S
FLINT          PTCLDY    68  63  84 CALM      30.17S
GROSSE ILE     PTCLDY    71  67  89 CALM      30.14F
HILLSDALE      CLOUDY    66  64  93 CALM      30.16F
HOWELL         MOCLDY    67  64  87 CALM      30.16F

CITY           SKY/WX    TMP DP  RH WIND       PRES   REMARKS
JACKSON        MOCLDY    67  67 100 CALM      30.17S
LAMBERTVILLE   PTCLDY    68  65  90 CALM      30.15F
LANSING        PTCLDY    65  61  87 CALM      30.16F
LAPEER         FAIR      63  62  97 CALM      30.18R
MASON          MOCLDY    65  63  92 CALM      30.16F
MONROE         CLOUDY    66  65  97 W5        30.14S
MT. CLEMENS    CLOUDY    70  67  89 N3        30.14S
PONTIAC        CLOUDY    69  64  84 CALM      30.16S
PORT HURON     PTCLDY    63  63 100 CALM      30.16S FOG
TRI CITIES     CLEAR     67  62  84 W3        30.16F
MIDLAND        FAIR      62  62  98 CALM      30.15S
TROY           PTCLDY    74  60  59 N3        30.18S
SAGINAW HB     CLEAR     64  61  88 CALM      30.15S
$$
MIZ043>046-050>051-056>058-064>065-071>073-077>080-270500-
SOUTHWEST LOWER MICHIGAN

CITY           SKY/WX    TMP DP  RH WIND       PRES   REMARKS
BATTLE CREEK   CLOUDY    66  64  93 NE5       30.16F
BENTON HARBOR  MOCLDY    67  59  75 NE5       30.14S
BIG RAPIDS     CLOUDY    61  58  90 CALM      30.17S
COLDWATER      CLOUDY    68  68 100 CALM      30.15F
FREMONT        FAIR      61  59  92 CALM      30.16F
HOLLAND        PTCLDY    65  58  78 NE3       30.16S
GRAND RAPIDS   PTCLDY    64  59  83 CALM      30.17S
IONIA          FAIR      63  57  82 CALM      30.16S
KALAMAZOO      CLOUDY    69  60  73 N3        30.16S
LUDINGTON      CLOUDY    56  56 100 CALM      30.17S
MARSHALL       CLOUDY    70  64  83 CALM      30.15F
MOUNT PLEASANT CLEAR     62  59  90 CALM      30.16S
MUSKEGON       CLEAR     64  59  83 CALM      30.16S
SOUTH HAVEN    CLOUDY    65  61  86 CALM      30.15S
$$
MIZ016>042-270500-
NORTHERN LOWER MICHIGAN

CITY           SKY/WX    TMP DP  RH WIND       PRES   REMARKS
ALPENA         CLOUDY    62  58  86 CALM      30.19R
BEAVER ISLAND  PTCLDY    63  60  90 E3        30.18R
BELLAIRE       CLOUDY    58  56  94 CALM      30.18R
CADILLAC       CLEAR     54  53  94 CALM      30.19S
CHARLEVOIX     PTCLDY    62  59  92 CALM      30.20R
FRANKFORT      PTCLDY    59  57  91 CALM      30.18R
GAYLORD        PTCLDY    62  55  77 CALM      30.19S
GRAYLING       PTCLDY    56  55  96 CALM      30.20S FOG
HARBOR SPRINGS PTCLDY    60  59  94 NE3       30.18R
HOUGHTON LAKE  CLEAR     56  54  93 NE3       30.19F
MANISTEE       MOCLDY    58  57  97 E3        30.17S
OSCODA         CLEAR     65  64  93 NE6       30.16S
PELLSTON       CLOUDY    58  56  93 CALM      30.17S
ROGERS CITY    CLOUDY    61  58  90 CALM      30.19R
TRAVERSE CITY  PTCLDY    61  57  87 CALM      30.16S
$$
MIZ007>008-015-270500-
EASTERN UPPER MICHIGAN

CITY           SKY/WX    TMP DP  RH WIND       PRES   REMARKS
KINROSS        CLOUDY    60  54  80 N3        30.19R
MACKINAC ISLAN MOCLDY    61  55  81 NE8       30.17S
NEWBERRY       CLOUDY    57  56  97 CALM      30.18S
S. S. MARIE    PTCLDY    57  53  86 CALM      30.18R
MUNISING         N/A     57  55  93 S3        30.17R
$$
MIZ004>006-011>014-085-270500-
CENTRAL UPPER MICHIGAN

CITY           SKY/WX    TMP DP  RH WIND       PRES   REMARKS
MANISTIQUE     CLOUDY    60  57  88 NE3       30.17S
ESCANABA       CLOUDY    62  59  90 NE3       30.16S
MENOMINEE      CLOUDY   N/A N/A N/A CALM      30.16S
SAWYER-GWINN   PTCLDY    57  54  89 CALM      30.19R
$$
MIZ001>003-009>011-084-270500-
WESTERN UPPER MICHIGAN

CITY           SKY/WX    TMP DP  RH WIND       PRES   REMARKS
IRON MOUNTAIN  CLOUDY    55  52  89 CALM      30.16S
HOUGHTON       PTCLDY    50  47  89 NW5       30.15R
COPPER HARBOR    N/A     55  53  93 W6        30.15S
IRONWOOD       PTCLDY    52  51  97 CALM      30.17R
$$

ABBREVIATIONS USED IN REMARKS
   TC - TEMPERATURE IN CELSIUS
  WCI - WIND CHILL INDEX
   HX - HEAT INDEX
  VSB - VISIBILITY





USA.gov is the U.S. government's official web portal to all federal, state and local government web resources and services.